Orbital elements:
2023 TA                                                  Earth MOID = 0.0022 AU
Epoch 2023 Sept. 13.0 TT = JDT 2460200.5                Veres                   
M 141.20137              (2000.0)            P               Q                  
n   1.12915673     Peri.  195.57844     -0.92459601     +0.38083828             
a   0.9133416      Node     6.82841     -0.34073941     -0.81597754             
e   0.1042356      Incl.    4.43223     -0.17034928     -0.43490557             
P   0.87           H   27.97          G   0.15           U   6                  
Residuals in seconds of arc
231001 K88  0.5+  0.5-    231001 K74  0.3+  0.0     231001 B72  0.4-  0.1+
231001 K88  1.0+  0.7-    231001 K63  0.1-  0.0     231001 B72  0.3-  0.1-
231001 K88  0.6+  0.0     231001 K74  0.1+  0.0     231001 B72  0.7-  0.1-
231001 K88  0.2+  0.3-    231001 595  0.5+  0.3-    231001 203  0.2-  0.1-
231001 K88  0.1-  0.3-    231001 K63  0.6+  0.1-    231001 203  0.1-  0.2-
231001 K88  0.0   0.0     231001 K74  0.2+  0.0     231001 203  0.0   0.4-
231001 K88  0.2+  0.1-    231001 K63  0.5-  0.2+    231001 I93  0.2-  0.3+
231001 K88  0.4+  0.5-    231001 K63  0.3+  0.1-    231001 I93  0.3-  0.0
231001 K88  0.6+  0.1-    231001 L01  0.6-  0.2+    231001 I93  0.3-  0.1+
231001 104  0.6+  0.4-    231001 L01  0.1-  0.1+    231001 I93  0.3-  0.0
231001 104  0.3-  0.1-    231001 L01  0.6-  0.0     231001 958  0.1-  0.3-
231001 G34  0.4-  0.1-    231001 L01  0.7-  0.1-    231001 958  0.0   0.1+
231001 G34  0.2-  0.1-    231001 L01  0.5-  0.1-    231001 958  0.5-  0.2+
231001 104  0.2-  0.3+    231001 Z80  0.4+  0.3+    231001 950  0.5+  0.1+
231001 K74  0.2-  0.1-    231001 B72  0.2-  0.1+    231001 950  0.6+  0.1-
231001 G34  0.0   0.2-    231001 B72  0.2-  0.1+    231001 950  0.4+  0.1+
231001 K74  0.3+  0.1+    231001 B72  0.2-  0.0     231002 W34  0.0   0.1+
231001 G34  0.1-  0.1+    231001 B72  0.3-  0.2+    231002 W34  0.2+  0.0
231001 K74  0.5+  0.0     231001 B72  0.2-  0.3-    231002 W34  0.3-  0.2-
231001 G34  0.0   0.2-    231001 B72  0.5-  0.2+    231002 H21  0.1-  0.2+
231001 K74  0.4+  0.1-    231001 B72  0.1-  0.0     231002 H21  0.1-  0.3+
231001 G34  0.5-  0.1-    231001 Z80  0.1-  0.3+    231002 H21  0.3-  0.3+
231001 K74  0.3+  0.1+    231001 B72  0.3-  0.0     231002 H21  0.2-  0.2+
231001 595  0.4+  0.0     231001 B72  0.3-  0.0     231002 H21  0.1-  0.3+
231001 K74  0.1+  0.1+    231001 B72  0.3-  0.1+    231002 900  0.0   0.3-
231001 K74  0.2+  0.0     231001 B72  0.1+  0.1-    231002 900  0.1+  0.3-
231001 K74  0.2+  0.1+    231001 B72  0.5-  0.0     231002 900  0.2-  0.2-
231001 595  0.5+  0.1-    231001 B72  0.2-  0.2-
231001 K63  0.6-  0.1-    231001 Z80  0.4-  0.3-

Ephemeris:
2023 TA                  a,e,i = 0.91, 0.10, 4                   q = 0.8181
Date    TT    R. A. (2000) Decl.     Delta      r    Elong.  Phase     V
2023 09 02    08 12 55.8 -26 13 17   0.04886 0.9785    50.0   127.8    26.9
...
2023 09 17    07 46 51.9 -26 07 36   0.02326 0.9948    62.3   116.5    24.4
...
2023 09 25    06 58 42.1 -22 53 24   0.0095511.0011    77.4   102.0    21.6
...
2023 10 01    00 17 19.3 +25 12 27   0.0032731.0044   157.6    22.4    16.6
2023 10 02    22 41 35.2 +29 33 34   0.0044541.0047   143.2    36.6    17.7
2023 10 03    21 47 29.8 +30 03 15   0.0059431.0049   132.7    47.1    18.6
...
2023 10 09    20 18 42.8 +27 41 35   0.01605 1.0050   111.1    68.0    21.4
...
2023 10 17    19 58 49.1 +26 23 06   0.02973 1.0032   101.4    76.9    23.0
...
2023 11 01    19 52 18.5 +25 47 57   0.05371 0.9937    89.5    87.4    24.7

M. P. C. Staff               (C) Copyright 2023 MPC           M.P.E.C. 2023-T04





More information about the Iaude mailing list